Hourly Data Report for November 06, 2021

MOUNT FOREST (AUT)
ONTARIO
Current Station Operator: ECCC - MSC

43°59'00.000" N
80°45'00.000" W
414.50 m
6145504
71631
WLS

Download Data

Hourly Data (November 2021)
Hourly Data Report for November 6, 2021
TIME
LST
Temp Definition
°C
Dew Point Definition
°C
Rel Hum Definition
%
Precip. Amount Definition
mm

Wind Dir Definition
10's deg

Wind Spd Definition
km/h
Visibility Definition
km
Stn Press Definition
kPa
Hmdx Definition


Wind Chill Definition


Weather Definition


00:00 1.0 -2.5 78 0.0 20 9   97.66     LegendNANA
01:00 0.7 -2.4 79 0.0 20 9   97.70     LegendNANA
02:00 0.5 -2.3 82 0.0 18 7   97.69     LegendNANA
03:00 0.5 -2.2 83 0.0 19 7   97.66     LegendNANA
04:00 0.8 -2.2 80 0.0 18 9   97.65     LegendNANA
05:00 0.7 -2.2 81 0.0 19 6   97.64     LegendNANA
06:00 0.3 -2.3 83 0.0 17 10   97.61     LegendNANA
07:00 0.0 -2.3 85 0.0 17 7   97.61   -2 LegendNANA
08:00 1.4 -1.8 79 0.0 19 7   97.61     LegendNANA
09:00 3.4 -1.1 72 0.0 21 13   97.59     LegendNANA
10:00 5.9 -1.2 60 0.0 21 15   97.55     LegendNANA
11:00 7.4 -1.2 55 0.0 21 14   97.51     LegendNANA
12:00 8.1 -0.5 55 0.0 23 18   97.43     LegendNANA
13:00 8.7 -0.2 54 0.0 23 16   97.32     LegendNANA
14:00 9.2 -0.4 51 0.0 22 20   97.25     LegendNANA
15:00 8.4 1.2 60 0.0 20 16   97.22     LegendNANA
16:00 8.3 1.5 62 0.0 20 16   97.21     LegendNANA
17:00 7.3 1.8 68 0.0 19 12   97.16     LegendNANA
18:00 6.4 2.0 73 0.0 18 12   97.16     LegendNANA
19:00 6.1 2.2 76 0.0 20 18   97.15     LegendNANA
20:00 5.2 1.7 78 0.0 20 13   97.17     LegendNANA
21:00 4.3 1.0 79 0.0 21 10   97.18     LegendNANA
22:00 3.9 0.5 79 0.0 20 11   97.13     LegendNANA
23:00 3.5 -0.2 76 0.0 20 8   97.11     LegendNANA

Notes on Data Quality.

Legend

  • E = Estimated
  • M = Missing
  • NA = Not Available*
  • [empty] = Indicates an unobserved value
Date modified: